SCP
0 0 -0 -0 -0 -0 -0 -0 -0 -0 -0 -0 -0 -0 -0 -0 -0 -0 0 0 0 0 0 0 -0 -0 0 0 0 -0 -0 0 -0 -0 -0 -0 -0 -0 -0 -0 0 0 0
-0 0 -0 -0 -0 -0 -0 -0 -0 -0 -0 -0 -0 -0 -0 -0 -0 -0 -0 0 0 0 0 0 -0 -0 -0 0 0 0 0 0 0 0 -0 -0 -0 -0 -0 -0 0 0 0
-0 -0 0 -0 -0 -0 -0 -0 -0 -0 -0 -0 -0 -0 -0 -0 -0 -0 -0 -0 0 0 0 -0 -0 -0 -0 -0 0 0 0 -0 -0 0 0 0 0 -0 -0 0 0 0 0
-0 -0 0 -0 -0 -0 0 -0 -0 -0 -0 -0 -0 -0 -0 -0 -0 -0 -0 0 0 0 0 -0 0 -0 -0 -0 -0 -0 -0 -0 -0 -0 0 0 0 0 0 0 0 0 0
-0 -0 -0 -0 -0 -0 0 0 -0 -0 -0 -0 -0 -0 -0 -0 -0 -0 -0 0 0 0 0 0 -0 0 0 -0 -0 -0 -0 -0 -0 -0 0 0 0 0 0 0 0 0 0
-0 -0 -0 -0 -0 -0 0 0 0 -0 -0 -0 -0 -0 -0 -0 -0 -0 -0 0 0 0 0 0 0 0 0 0 0 -0 -0 -0 -0 0 0 0 0 0 0 0 0 0 0
-0 -0 -0 -0 -0 -0 -0 -0 -0 -0 -0 -0 -0 -0 -0 -0 -0 -0 -0 0 0 0 0 0 0 0 0 0 0 0 0 0 0 0 0 0 0 0 0 0 0 0 0
-0 -0 -0 -0 -0 -0 -0 -0 -0 -0 -0 -0 -0 -0 -0 -0 -0 -0 -0 0 0 0 0 0 0 0 0 0 0 0 0 0 0 0 0 0 0 0 0 0 0 0 0
-0 0 0 0 0 0 0 0 -0 -0 -0 -0 -0 -0 -0 -0 -0 -0 -0 -0 0 0 0 0 0 0 0 0 0 0 0 -0 0 0 0 0 0 0 0 0 0 0 0
-0 -0 0 0 0 0 0 0 0 0 0 -0 -0 -0 -0 -0 -0 -0 -0 -0 -0 0 0 0 0 0 0 0 0 0 0 0 0 0 0 0 0 0 0 0 0 0 0
0 -0 0 0 0 0 0 0 0 0 0 0 0 0 0 0 0 -0 -0 -0 -0 -0 -0 0 0 0 0 0 0 0 0 0 0 0 0 0 0 0 0 0 0 0 0
0 0 -0 -0 0 0 0 0 0 0 0 0 0 0 0 0 0 0 0 -0 -0 -0 0 0 0 0 0 0 0 0 0 0 0 0 0 0 0 0 0 0 0 0 0
0 0 0 -0 0 -0 0 0 0 0 0 0 0 0 0 0 0 0 0 0 0 0 0 0 0 0 0 0 0 0 0 0 0 0 0 0 0 0 0 0 0 0 0
0 0 0 0 0 0 0 0 0 0 0 0 0 0 0 0 0 0 0 0 0 0 0 0 0 0 0 0 0 0 0 0 0 0 0 0 0 0 0 0 0 0 0
0 0 0 0 0 0 0 0 0 0 0 0 0 0 0 0 0 0 0 0 0 0 0 0 0 0 0 0 0 0 0 0 0 0 0 0 0 0 0 0 0 0 0
0 0 0 0 0 0 0 0 0 0 0 0 0 0 0 0 0 0 0 0 0 0 0 0 0 0 0 0 0 0 0 0 0 0 0 0 0 0 0 0 0 0 0
0 0 0 0 0 0 0 0 0 0 0 0 0 0 0 0 0 0 0 0 0 0 0 0 0 0 0 0 0 0 0 0 0 0 0 0 0 0 0 0 0 0 0
0 0 0 0 0 0 0 0 0 0 0 0 0 0 0 0 0 0 0 0 0 0 0 0 0 0 0 0 0 0 0 0 0 0 0 0 0 0 0 0 0 0 0
0 0 0 0 0 0 0 0 0 0 0 0 0 0 0 0 0 0 0 0 0 0 0 0 0 0 0 0 0 0 0 0 0 0 0 0 0 0 0 0 0 0 0
0 0 0 0 0 0 0 0 0 0 0 0 0 0 0 0 0 0 0 0 0 0 0 0 0 0 0 0 0 0 0 0 0 0 0 0 0 0 0 0 0 0 0
0 0 0 0 0 0 0 0 0 0 0 0 0 0 0 0 0 0 0 0 0 0 0 0 0 0 0 0 0 0 0 0 0 0 0 0 0 0 0 0 0 0 0
0 0 0 0 0 0 0 0 0 0 0 0 0 0 0 0 0 0 0 0 0 0 0 0 0 0 0 0 0 0 0 0 0 0 0 0 0 0 0 0 0 0 0
0 0 0 0 0 0 0 0 0 0 0 0 0 0 0 0 0 0 0 0 0 0 0 0 0 0 0 0 0 0 0 0 0 0 0 0 0 0 0 0 0 0 0
0 0 0 0 0 0 0 0 0 0 0 0 0 0 0 0 0 0 0 0 0 0 0 0 0 0 0 0 0 0 0 0 0 0 0 0 0 0 0 0 0 0 0
0 0 0 0 0 0 0 0 0 0 0 0 0 0 0 0 0 0 0 0 0 0 0 0 0 0 0 0 0 0 0 0 0 0 0 0 0 0 0 0 0 0 0
0 0 0 0 0 0 0 0 0 0 0 0 0 0 0 0 0 0 0 0 0 0 0 0 0 0 0 0 0 0 0 0 0 0 0 0 0 0 0 0 0 0 0
Wind_Speed_500mb
21 29 28 29 28 27 27 27 25 25 24 26 22 21 22 23 22 18 13 10 7 12 16 19 22 23 23 25 27 30 28 29 29 27 25 20 20 27 25 26 23 22 21
29 32 31 31 29 26 24 25 25 25 23 20 18 15 15 15 14 12 8 8 16 19 20 20 21 22 22 27 29 31 32 31 30 26 26 23 21 22 25 24 22 20 15
28 34 32 29 27 23 21 21 20 21 20 20 16 13 10 7 7 9 16 23 23 22 18 17 21 23 24 29 32 33 32 31 28 22 22 22 21 18 15 17 19 19 18
31 36 35 31 26 22 19 16 16 20 21 19 17 13 11 7 7 11 23 18 16 22 22 11 20 21 24 28 30 30 27 25 24 20 15 17 12 12 8 8 13 15 17
32 34 36 36 30 23 20 17 17 15 19 24 24 22 17 10 13 15 20 18 16 17 25 12 12 18 20 22 24 24 23 23 22 15 4 13 9 6 3 5 8 12 15
34 35 34 36 31 23 19 20 20 18 16 15 21 23 24 22 19 22 21 18 7 14 24 14 10 13 15 17 18 19 18 18 18 11 7 7 5 5 3 4 7 8 10
30 29 31 34 28 23 17 16 17 20 17 13 8 10 24 23 13 14 19 22 13 11 13 13 10 12 11 12 13 13 11 8 10 7 5 11 6 3 3 3 3 6 8
31 28 32 34 27 23 19 16 17 19 20 15 11 8 11 11 11 11 10 13 18 15 9 11 10 11 8 6 6 6 5 3 2 4 7 8 8 6 5 10 12 10 7
27 26 35 38 31 26 22 18 16 18 21 18 13 12 13 10 11 10 9 10 8 8 9 6 4 1 3 1 1 0 0 2 4 5 8 9 9 10 9 9 10 10 9
26 22 38 36 32 28 25 22 20 19 19 17 17 17 14 14 14 14 16 14 14 17 17 16 11 12 10 9 7 7 6 7 9 11 11 11 11 14 15 13 12 12 12
32 24 33 34 32 28 25 22 21 20 20 19 20 19 20 17 18 18 18 19 18 17 16 15 16 15 14 14 14 14 14 13 15 17 16 16 17 17 18 17 16 16 15
42 32 35 34 32 30 31 29 26 23 22 20 21 22 21 20 19 19 21 21 17 16 14 15 17 17 17 17 19 21 20 18 21 22 22 23 22 22 22 22 21 20 20
41 38 31 37 37 35 32 29 32 31 28 27 26 24 24 25 26 25 21 16 17 18 21 21 22 22 22 24 25 26 25 23 22 25 25 28 27 25 26 26 26 25 24
46 40 35 40 39 41 37 36 35 32 36 35 31 29 28 27 29 28 26 25 25 24 26 26 26 25 26 26 27 29 30 30 31 31 32 34 33 31 30 31 31 31 31
47 42 38 40 43 39 40 40 39 36 35 33 36 33 33 32 33 32 33 33 31 32 30 30 31 30 31 31 32 33 33 35 37 38 39 40 41 40 37 36 37 37 36
41 40 34 36 40 41 40 37 38 36 36 36 36 34 34 35 37 39 39 38 36 33 32 34 35 37 38 38 39 38 39 40 40 41 42 44 45 45 44 43 43 42 42
42 37 35 32 34 40 40 40 39 37 37 39 37 35 39 37 38 42 43 43 40 38 37 38 39 41 44 44 45 43 44 45 46 47 47 47 47 49 48 47 48 47 46
42 43 39 36 35 35 37 39 39 38 40 39 38 39 38 40 40 41 44 45 43 44 45 45 44 46 48 48 49 49 50 50 50 49 50 49 49 49 50 50 50 50 50
49 48 47 45 41 38 37 37 37 37 39 43 43 43 41 43 46 47 48 46 47 49 50 50 50 51 52 52 53 53 53 54 53 53 54 52 51 50 51 52 52 53 54
49 49 50 50 47 44 41 41 43 46 46 45 44 46 45 42 45 51 52 48 49 52 54 54 55 53 55 53 53 56 56 57 59 61 60 58 56 57 56 56 54 56 58
51 51 52 53 52 49 51 52 53 54 54 53 51 48 46 46 46 48 51 53 54 57 58 56 56 57 58 54 54 59 61 64 67 64 59 57 56 53 49 48 46 48 51
59 57 61 62 57 58 60 59 57 54 51 53 53 51 43 41 45 48 51 51 59 60 62 61 62 63 63 58 54 50 51 60 66 47 38 37 40 38 41 45 50 52 53
56 59 62 68 68 65 67 62 55 55 57 58 58 52 44 42 44 46 48 53 56 62 65 64 65 66 65 63 59 51 23 23 43 49 33 31 42 46 53 49 50 52 54
54 54 58 65 63 60 57 58 60 63 63 59 55 47 47 45 46 46 48 49 51 54 67 71 68 66 64 67 65 66 69 72 50 48 55 66 55 60 61 51 55 62 62
47 55 55 59 52 53 57 60 59 62 61 56 55 56 55 52 49 48 48 49 50 52 53 61 65 67 69 70 70 70 76 78 79 81 69 58 65 70 70 65 65 65 64
55 51 47 44 55 58 55 58 61 60 58 57 58 59 56 52 51 52 52 53 53 53 53 49 54 59 67 72 74 75 73 70 64 70 75 68 70 71 77 76 77 75 71
Wind_Direction_500mb
173 166 157 146 139 133 126 125 128 122 116 124 114 113 108 108 113 111 101 100 115 133 108 91 92 86 95 97 97 99 101 83 78 76 73 74 94 87 83 83 84 83 79
162 164 157 150 142 136 131 130 130 135 128 129 126 125 119 116 122 116 93 84 115 107 103 95 90 88 89 100 104 103 94 80 73 61 66 65 84 88 86 78 70 67 66
165 162 157 150 144 132 126 129 143 149 149 141 134 135 127 129 134 119 98 90 96 94 85 91 91 92 93 100 106 107 97 89 76 58 61 62 83 80 84 72 59 50 43
167 164 158 153 147 142 137 139 142 165 174 171 170 160 146 140 154 145 122 125 101 122 108 83 94 100 99 101 111 114 105 99 101 75 54 53 96 88 73 63 46 40 35
165 167 163 158 154 152 151 152 154 157 177 193 200 203 203 171 172 155 136 125 114 104 111 112 106 105 107 107 113 118 108 95 86 100 122 47 72 144 96 60 38 27 27
162 168 168 166 160 160 161 163 163 159 155 159 194 199 199 193 170 158 144 133 159 119 127 130 110 110 114 112 112 119 116 115 101 74 81 22 20 104 81 3 356 1 14
163 166 173 171 165 165 164 165 166 164 161 147 130 176 180 201 185 176 171 148 174 144 141 129 124 123 120 122 118 119 125 119 110 145 330 25 32 48 168 282 329 352 351
174 178 178 176 173 170 170 166 169 172 179 179 169 165 180 184 177 173 189 193 176 185 186 174 153 154 142 127 121 119 122 131 25 68 346 347 12 356 295 277 285 296 307
187 185 183 180 179 178 177 175 175 181 189 195 200 190 178 190 183 184 198 193 205 222 202 232 226 141 163 187 284 329 349 269 281 319 321 327 330 332 320 300 293 282 269
196 203 190 188 190 190 189 186 185 187 194 206 212 217 204 196 192 198 198 201 204 206 203 214 214 211 209 220 236 247 249 249 248 267 285 303 310 312 311 308 301 290 269
199 211 193 191 199 202 201 203 204 201 201 207 212 220 224 216 212 214 216 217 215 223 231 236 239 236 239 244 253 259 259 257 260 265 275 289 295 293 296 299 298 292 279
203 206 195 191 197 206 211 208 212 216 217 218 218 221 222 225 230 234 233 231 232 248 257 260 265 266 265 267 269 272 273 269 269 274 281 281 284 285 289 290 291 287 280
205 209 206 195 201 204 210 213 213 215 220 223 224 226 226 227 229 238 236 229 236 247 253 254 258 263 266 267 269 271 271 272 270 271 276 277 281 284 284 283 284 283 278
212 222 215 214 207 208 214 212 218 223 220 222 226 227 229 233 238 241 240 247 249 254 252 255 258 261 265 269 269 271 276 281 281 282 280 279 282 282 282 282 280 278 277
214 223 224 220 219 217 217 219 220 226 226 224 219 226 230 233 241 246 252 254 254 251 252 253 259 262 265 268 270 274 277 277 277 278 279 279 280 281 280 277 277 275 273
213 223 217 212 222 228 228 232 226 228 230 233 232 232 237 243 244 247 252 254 257 257 260 261 266 268 273 274 275 276 278 278 280 280 280 279 278 278 277 273 272 273 273
221 224 225 221 219 222 230 234 237 232 234 238 241 238 240 243 247 248 251 254 260 264 265 265 266 268 268 270 276 279 281 282 281 282 282 282 281 280 280 278 274 271 270
228 227 228 228 227 230 229 232 240 244 242 243 244 246 246 251 253 254 256 259 262 262 264 264 264 265 268 272 277 281 283 283 282 282 281 281 281 282 282 279 276 272 269
228 231 231 234 237 240 240 238 242 247 251 252 249 250 251 249 254 257 258 262 262 264 266 269 271 272 272 273 277 279 280 280 281 282 282 283 284 282 281 280 277 274 270
228 233 236 238 241 246 247 249 253 253 252 254 257 255 252 247 248 256 261 260 259 261 263 264 268 271 275 277 279 280 282 283 283 282 284 287 288 287 285 284 282 277 275
226 228 232 237 240 244 244 244 249 252 254 254 258 263 259 258 255 252 255 259 258 259 264 266 269 270 272 275 280 280 282 283 279 283 286 287 286 289 290 287 287 285 284
223 234 238 238 235 240 242 251 252 255 257 257 258 263 265 262 258 261 263 257 256 257 260 262 261 265 270 272 268 275 283 288 291 296 295 291 291 289 285 292 292 291 289
227 234 238 241 241 246 249 250 248 248 249 247 248 251 255 261 266 268 270 271 263 251 258 260 260 259 265 270 268 258 265 263 292 298 291 284 286 285 288 288 289 289 289
245 250 249 248 252 247 244 246 250 245 241 245 250 257 258 260 266 269 273 275 276 267 252 254 258 262 263 264 268 266 262 266 275 289 286 290 285 279 284 283 285 287 285
248 246 246 247 242 242 249 251 248 246 249 254 257 258 259 261 260 266 271 275 274 275 274 256 254 258 262 266 266 269 270 274 275 271 280 283 284 287 292 290 289 284 283
246 249 250 242 237 244 246 240 247 251 254 254 253 251 255 259 262 264 265 270 274 276 278 267 258 257 260 263 267 269 269 268 270 273 276 279 283 288 291 293 292 290 289
Wind_Speed_850mb
21 29 28 29 28 27 27 27 25 25 24 26 22 21 22 23 22 18 13 10 7 12 16 19 22 23 23 25 27 30 28 29 29 27 25 20 20 27 25 26 23 22 21
29 32 31 31 29 26 24 25 25 25 23 20 18 15 15 15 14 12 8 8 16 19 20 20 21 22 22 27 29 31 32 31 30 26 26 23 21 22 25 24 22 20 15
28 34 32 29 27 23 21 21 20 21 20 20 16 13 10 7 7 9 16 23 23 22 18 17 21 23 24 29 32 33 32 31 28 22 22 22 21 18 15 17 19 19 18
31 36 35 31 26 22 19 16 16 20 21 19 17 13 11 7 7 11 23 18 16 22 22 11 20 21 24 28 30 30 27 25 24 20 15 17 12 12 8 8 13 15 17
32 34 36 36 30 23 20 17 17 15 19 24 24 22 17 10 13 15 20 18 16 17 25 12 12 18 20 22 24 24 23 23 22 15 4 13 9 6 3 5 8 12 15
34 35 34 36 31 23 19 20 20 18 16 15 21 23 24 22 19 22 21 18 7 14 24 14 10 13 15 17 18 19 18 18 18 11 7 7 5 5 3 4 7 8 10
30 29 31 34 28 23 17 16 17 20 17 13 8 10 24 23 13 14 19 22 13 11 13 13 10 12 11 12 13 13 11 8 10 7 5 11 6 3 3 3 3 6 8
31 28 32 34 27 23 19 16 17 19 20 15 11 8 11 11 11 11 10 13 18 15 9 11 10 11 8 6 6 6 5 3 2 4 7 8 8 6 5 10 12 10 7
27 26 35 38 31 26 22 18 16 18 21 18 13 12 13 10 11 10 9 10 8 8 9 6 4 1 3 1 1 0 0 2 4 5 8 9 9 10 9 9 10 10 9
26 22 38 36 32 28 25 22 20 19 19 17 17 17 14 14 14 14 16 14 14 17 17 16 11 12 10 9 7 7 6 7 9 11 11 11 11 14 15 13 12 12 12
32 24 33 34 32 28 25 22 21 20 20 19 20 19 20 17 18 18 18 19 18 17 16 15 16 15 14 14 14 14 14 13 15 17 16 16 17 17 18 17 16 16 15
42 32 35 34 32 30 31 29 26 23 22 20 21 22 21 20 19 19 21 21 17 16 14 15 17 17 17 17 19 21 20 18 21 22 22 23 22 22 22 22 21 20 20
41 38 31 37 37 35 32 29 32 31 28 27 26 24 24 25 26 25 21 16 17 18 21 21 22 22 22 24 25 26 25 23 22 25 25 28 27 25 26 26 26 25 24
46 40 35 40 39 41 37 36 35 32 36 35 31 29 28 27 29 28 26 25 25 24 26 26 26 25 26 26 27 29 30 30 31 31 32 34 33 31 30 31 31 31 31
47 42 38 40 43 39 40 40 39 36 35 33 36 33 33 32 33 32 33 33 31 32 30 30 31 30 31 31 32 33 33 35 37 38 39 40 41 40 37 36 37 37 36
41 40 34 36 40 41 40 37 38 36 36 36 36 34 34 35 37 39 39 38 36 33 32 34 35 37 38 38 39 38 39 40 40 41 42 44 45 45 44 43 43 42 42
42 37 35 32 34 40 40 40 39 37 37 39 37 35 39 37 38 42 43 43 40 38 37 38 39 41 44 44 45 43 44 45 46 47 47 47 47 49 48 47 48 47 46
42 43 39 36 35 35 37 39 39 38 40 39 38 39 38 40 40 41 44 45 43 44 45 45 44 46 48 48 49 49 50 50 50 49 50 49 49 49 50 50 50 50 50
49 48 47 45 41 38 37 37 37 37 39 43 43 43 41 43 46 47 48 46 47 49 50 50 50 51 52 52 53 53 53 54 53 53 54 52 51 50 51 52 52 53 54
49 49 50 50 47 44 41 41 43 46 46 45 44 46 45 42 45 51 52 48 49 52 54 54 55 53 55 53 53 56 56 57 59 61 60 58 56 57 56 56 54 56 58
51 51 52 53 52 49 51 52 53 54 54 53 51 48 46 46 46 48 51 53 54 57 58 56 56 57 58 54 54 59 61 64 67 64 59 57 56 53 49 48 46 48 51
59 57 61 62 57 58 60 59 57 54 51 53 53 51 43 41 45 48 51 51 59 60 62 61 62 63 63 58 54 50 51 60 66 47 38 37 40 38 41 45 50 52 53
56 59 62 68 68 65 67 62 55 55 57 58 58 52 44 42 44 46 48 53 56 62 65 64 65 66 65 63 59 51 23 23 43 49 33 31 42 46 53 49 50 52 54
54 54 58 65 63 60 57 58 60 63 63 59 55 47 47 45 46 46 48 49 51 54 67 71 68 66 64 67 65 66 69 72 50 48 55 66 55 60 61 51 55 62 62
47 55 55 59 52 53 57 60 59 62 61 56 55 56 55 52 49 48 48 49 50 52 53 61 65 67 69 70 70 70 76 78 79 81 69 58 65 70 70 65 65 65 64
55 51 47 44 55 58 55 58 61 60 58 57 58 59 56 52 51 52 52 53 53 53 53 49 54 59 67 72 74 75 73 70 64 70 75 68 70 71 77 76 77 75 71
Wind_Direction_850mb
173 166 157 146 139 133 126 125 128 122 116 124 114 113 108 108 113 111 101 100 115 133 108 91 92 86 95 97 97 99 101 83 78 76 73 74 94 87 83 83 84 83 79
162 164 157 150 142 136 131 130 130 135 128 129 126 125 119 116 122 116 93 84 115 107 103 95 90 88 89 100 104 103 94 80 73 61 66 65 84 88 86 78 70 67 66
165 162 157 150 144 132 126 129 143 149 149 141 134 135 127 129 134 119 98 90 96 94 85 91 91 92 93 100 106 107 97 89 76 58 61 62 83 80 84 72 59 50 43
167 164 158 153 147 142 137 139 142 165 174 171 170 160 146 140 154 145 122 125 101 122 108 83 94 100 99 101 111 114 105 99 101 75 54 53 96 88 73 63 46 40 35
165 167 163 158 154 152 151 152 154 157 177 193 200 203 203 171 172 155 136 125 114 104 111 112 106 105 107 107 113 118 108 95 86 100 122 47 72 144 96 60 38 27 27
162 168 168 166 160 160 161 163 163 159 155 159 194 199 199 193 170 158 144 133 159 119 127 130 110 110 114 112 112 119 116 115 101 74 81 22 20 104 81 3 356 1 14
163 166 173 171 165 165 164 165 166 164 161 147 130 176 180 201 185 176 171 148 174 144 141 129 124 123 120 122 118 119 125 119 110 145 330 25 32 48 168 282 329 352 351
174 178 178 176 173 170 170 166 169 172 179 179 169 165 180 184 177 173 189 193 176 185 186 174 153 154 142 127 121 119 122 131 25 68 346 347 12 356 295 277 285 296 307
187 185 183 180 179 178 177 175 175 181 189 195 200 190 178 190 183 184 198 193 205 222 202 232 226 141 163 187 284 329 349 269 281 319 321 327 330 332 320 300 293 282 269
196 203 190 188 190 190 189 186 185 187 194 206 212 217 204 196 192 198 198 201 204 206 203 214 214 211 209 220 236 247 249 249 248 267 285 303 310 312 311 308 301 290 269
199 211 193 191 199 202 201 203 204 201 201 207 212 220 224 216 212 214 216 217 215 223 231 236 239 236 239 244 253 259 259 257 260 265 275 289 295 293 296 299 298 292 279
203 206 195 191 197 206 211 208 212 216 217 218 218 221 222 225 230 234 233 231 232 248 257 260 265 266 265 267 269 272 273 269 269 274 281 281 284 285 289 290 291 287 280
205 209 206 195 201 204 210 213 213 215 220 223 224 226 226 227 229 238 236 229 236 247 253 254 258 263 266 267 269 271 271 272 270 271 276 277 281 284 284 283 284 283 278
212 222 215 214 207 208 214 212 218 223 220 222 226 227 229 233 238 241 240 247 249 254 252 255 258 261 265 269 269 271 276 281 281 282 280 279 282 282 282 282 280 278 277
214 223 224 220 219 217 217 219 220 226 226 224 219 226 230 233 241 246 252 254 254 251 252 253 259 262 265 268 270 274 277 277 277 278 279 279 280 281 280 277 277 275 273
213 223 217 212 222 228 228 232 226 228 230 233 232 232 237 243 244 247 252 254 257 257 260 261 266 268 273 274 275 276 278 278 280 280 280 279 278 278 277 273 272 273 273
221 224 225 221 219 222 230 234 237 232 234 238 241 238 240 243 247 248 251 254 260 264 265 265 266 268 268 270 276 279 281 282 281 282 282 282 281 280 280 278 274 271 270
228 227 228 228 227 230 229 232 240 244 242 243 244 246 246 251 253 254 256 259 262 262 264 264 264 265 268 272 277 281 283 283 282 282 281 281 281 282 282 279 276 272 269
228 231 231 234 237 240 240 238 242 247 251 252 249 250 251 249 254 257 258 262 262 264 266 269 271 272 272 273 277 279 280 280 281 282 282 283 284 282 281 280 277 274 270
228 233 236 238 241 246 247 249 253 253 252 254 257 255 252 247 248 256 261 260 259 261 263 264 268 271 275 277 279 280 282 283 283 282 284 287 288 287 285 284 282 277 275
226 228 232 237 240 244 244 244 249 252 254 254 258 263 259 258 255 252 255 259 258 259 264 266 269 270 272 275 280 280 282 283 279 283 286 287 286 289 290 287 287 285 284
223 234 238 238 235 240 242 251 252 255 257 257 258 263 265 262 258 261 263 257 256 257 260 262 261 265 270 272 268 275 283 288 291 296 295 291 291 289 285 292 292 291 289
227 234 238 241 241 246 249 250 248 248 249 247 248 251 255 261 266 268 270 271 263 251 258 260 260 259 265 270 268 258 265 263 292 298 291 284 286 285 288 288 289 289 289
245 250 249 248 252 247 244 246 250 245 241 245 250 257 258 260 266 269 273 275 276 267 252 254 258 262 263 264 268 266 262 266 275 289 286 290 285 279 284 283 285 287 285
248 246 246 247 242 242 249 251 248 246 249 254 257 258 259 261 260 266 271 275 274 275 274 256 254 258 262 266 266 269 270 274 275 271 280 283 284 287 292 290 289 284 283
246 249 250 242 237 244 246 240 247 251 254 254 253 251 255 259 262 264 265 270 274 276 278 267 258 257 260 263 267 269 269 268 270 273 276 279 283 288 291 293 292 290 289